IRIDIUM 35 [-]

Last updated on Thu Dec 27 2018 02:53:57 GMT+0000 (Coordinated Universal Time)

1 24966U 97056B 18360.46793987 .88721880 -13700-5 43046-3 0 9994 2 24966 86.3775 83.9710 0033945 287.6790 72.2579 16.53887081112740

Satellite not in orbit